Location: Newark
(41.0400°S, 62.7845°W)
Time: 09:07:23
(UTC+00:00)

Transit 2A - Pass Details

Date: 30 November 2021
Orbit: 591 x 967 km, 66.7° (Epoch: 19 January)

Event Time Altitude Azimuth Distance (km) Brightness Sun altitude
Rises 02:07:35 0° 210° (SSW) 2,864 10.5 -22.1°
Reaches altitude 10° 02:09:49 10° 209° (SSW) 1,959 9.3 -22.3°
Maximum altitude 02:14:11 86° 122° (ESE) 624 5.4 -22.7°
Enters shadow 02:14:33 75° 44° (NE) 645 5.4 -22.7°
Drops below altitude 10° 02:18:43 10° 30° (NNE) 2,030 - -23.1°
Sets 02:21:04 0° 29° (NNE) 2,978 - -23.2°
